Location: Eastlake (historical)
(39.0077°N, 122.6678°W)
Time: 05:27:39
(UTC+00:00)

Cosmos 2227 - Pass Details

Date: 25 November 2020
Orbit: 833 x 863 km, 71.0° (Epoch: 24 January)

Event Time Altitude Azimuth Distance (km) Brightness Sun altitude
Exits shadow 13:17:54 22° 228° (SW) 1,735 5.5 -20.5°
Maximum altitude 13:21:21 53° 296° (WNW) 1,019 4.2 -19.9°
Drops below altitude 10° 13:26:50 10° 14° (NNE) 2,449 6.6 -18.8°
Sets 13:29:21 0° 19° (NNE) 3,386 7.4 -18.3°
